SOYUZ-MS 08 (43238 NORAD) Tracking and Keplerian Element Data

This shows tracking and keplerian element data for the satellite.

Feedback or suggestion? Click here.




ElementValue
Catalog43238
NameSOYUZ-MS 08
Epoch Orbit13533
Epoch Day276.33375789
Epoch Year2018
RAAN199.7791
Inclination51.6424
Eccentricity0.0003699
Argument of Perigee234.1477
Mean Anonmoly270.5097
Mean Motion15.53768232
Decay Rate2.122E-05
L11 43238U 18026A 18276.33375789 .00002122 00000-0 39776-4 0 9999
L22 43238 51.6424 199.7791 0003699 234.1477 270.5097 15.53768232135339

Live tracking and technical data element details for SOYUZ-MS 08 (NORAD 43238). SOYUZ-MS 08 can be tracked NOW for your location showing map with azimuth and elevation plus other details from your city location.

Track the satellite on the map from your city or location and see movement details for azimuth, elevation, latitude, longitude, range, height, and movement on the map or in text.







IsCatalogInMostPopularTable: catalog: 43238, numindb: 114
Update: records affected: 1



GetName: 43238 SOYUZ-MS 08

Hit Count: updated at: Sat, 17 Nov 2018 02:56:54 GMT